Temp
76 75 73 69 56 52 49 56 58 65 67 67 70 67 66 67 67 58 72 75 75 74 77 78 78 78 78 78 77 77 76 76 77 77 78 77 77 77 77 76 76 76 76 75 75 75 75 76 76
72 76 69 61 50 44 49 60 59 62 68 71 73 69 67 65 72 71 71 78 77 76 76 77 78 78 78 78 77 77 76 76 77 77 78 78 77 76 76 75 75 75 74 74 74 74 74 74 74
75 75 61 54 49 47 49 59 59 67 71 70 68 71 68 66 71 71 74 79 77 75 77 77 77 78 78 77 77 76 76 76 76 77 77 78 78 77 76 75 74 73 73 73 73 73 74 74 73
70 66 61 51 50 58 58 63 63 66 72 73 69 66 70 72 71 75 78 79 76 75 77 76 77 78 77 77 77 76 76 76 76 76 76 76 77 78 76 74 73 73 73 72 73 73 73 73 73
66 59 49 47 51 59 63 69 67 64 66 69 68 65 65 72 75 77 78 79 73 72 75 76 77 77 77 77 76 76 76 76 76 76 76 76 77 77 76 75 73 73 73 73 73 73 73 73 73
58 57 45 44 50 61 63 70 68 64 66 69 66 64 63 71 74 74 79 76 75 73 75 76 75 76 76 76 76 76 76 76 76 76 76 78 77 76 76 75 74 73 73 73 73 73 73 73 73
55 50 46 47 51 57 63 71 66 64 61 64 69 63 62 67 73 78 77 77 76 75 73 72 73 74 74 75 75 75 75 75 75 76 76 74 74 75 75 74 74 74 74 74 73 73 73 73 73
58 53 47 48 51 54 64 67 69 67 62 71 70 62 60 70 76 76 75 76 75 73 73 70 70 71 71 71 73 73 74 73 74 74 73 72 71 72 74 72 72 73 73 73 73 73 73 73 73
61 47 46 50 53 58 66 64 70 71 66 68 70 68 72 75 75 72 71 71 72 74 71 71 70 70 71 70 72 72 72 72 72 71 70 69 66 67 68 69 70 72 72 72 72 72 72 71 70
54 46 51 59 60 60 66 66 68 65 64 64 66 72 71 71 69 70 69 69 70 71 72 72 72 72 71 76 71 68 70 67 67 67 66 66 65 65 70 67 69 71 71 71 72 72 71 69 64
55 50 58 62 66 67 65 67 68 62 59 66 66 67 71 74 72 71 69 69 72 73 73 74 73 74 73 74 69 69 69 67 67 66 66 65 68 65 64 63 64 63 64 63 66 65 64 63 62
52 59 61 63 66 65 62 67 62 63 64 70 69 71 70 71 71 73 72 71 70 71 74 75 75 72 73 72 71 70 70 68 66 67 68 65 64 65 64 63 63 62 63 62 62 62 64 64 64
52 56 62 65 65 66 67 62 63 62 67 71 73 73 70 70 71 72 71 71 70 71 73 74 73 73 72 70 72 69 71 70 69 68 70 68 65 64 64 64 64 64 64 64 64 64 64 64 66
55 57 59 62 63 66 64 62 62 64 67 68 69 69 70 69 71 67 68 67 68 68 72 74 74 73 73 71 70 71 70 70 69 68 69 70 67 65 65 65 65 64 65 69 69 68 68 68 68
56 51 56 58 61 60 64 58 57 65 67 65 67 66 70 69 70 68 66 66 66 67 68 71 73 74 72 71 71 70 72 73 72 71 71 72 68 66 65 64 64 68 70 69 67 67 64 59 62
47 47 42 55 59 61 61 50 61 65 63 64 67 63 65 68 68 66 68 66 65 66 69 69 74 71 70 70 70 73 74 73 72 72 71 71 68 67 63 61 65 66 64 61 59 56 55 54 54
40 37 41 48 58 57 57 52 61 64 63 61 60 62 65 64 63 63 67 66 64 66 67 67 69 70 70 68 70 71 71 70 70 69 68 66 65 64 62 62 59 58 57 55 55 54 52 52 53
36 35 42 42 52 57 52 53 59 62 64 64 62 61 61 62 62 63 65 65 65 65 64 65 66 66 66 68 67 66 67 66 66 65 63 62 62 61 59 58 57 56 54 53 53 52 52 50 50
42 40 40 47 55 52 52 53 59 63 61 57 59 60 60 59 60 62 62 64 63 63 63 64 64 64 67 65 62 62 59 61 60 61 61 60 59 58 55 54 54 53 52 51 52 50 49 49 49
41 38 38 46 52 52 52 52 59 59 61 64 61 60 57 57 58 60 61 60 61 60 60 61 61 62 63 64 62 60 58 58 58 57 57 57 56 56 56 53 52 51 50 49 48 47 46 47 46
40 39 40 40 48 48 50 48 54 59 63 60 63 63 61 59 58 56 56 57 57 58 58 60 60 62 63 63 63 61 59 55 55 53 52 54 55 55 53 52 50 49 48 46 46 45 45 43 44
34 44 44 43 41 35 52 37 48 55 56 59 59 58 59 58 58 58 56 55 56 55 57 59 60 61 61 62 60 56 54 52 51 52 52 52 53 52 53 52 50 48 47 46 45 48 44 43 41
39 46 42 43 39 37 41 41 43 52 53 59 63 54 57 58 58 57 56 57 56 55 54 55 57 58 57 56 56 55 52 51 51 51 50 50 50 51 51 50 48 47 46 45 45 44 43 43 42
47 41 39 41 38 29 38 41 40 47 55 54 54 56 57 56 56 56 56 57 53 53 53 54 56 55 55 55 53 52 50 50 49 48 48 48 47 48 49 50 47 46 45 45 44 44 43 42 41
42 35 29 27 27 29 44 41 44 52 56 58 55 56 56 56 55 54 54 53 52 52 53 54 55 53 54 53 52 51 49 48 47 47 46 46 46 45 45 46 45 44 45 45 44 42 41 41 39
37 36 31 25 30 33 45 37 46 57 56 60 59 57 56 54 54 53 53 52 53 53 52 53 53 52 52 51 50 49 49 47 47 47 46 45 45 45 45 45 44 44 45 44 43 41 40 41 38
37 33 43 33 40 34 39 41 50 52 52 56 55 55 53 53 53 53 53 53 51 51 52 52 52 51 50 49 49 47 47 47 46 46 45 44 45 50 44 44 43 44 43 43 41 39 39 39 38
41 46 33 32 29 28 36 37 41 46 49 53 53 53 52 53 53 53 54 53 51 52 52 51 51 50 49 48 48 47 46 46 45 45 44 44 44 44 43 43 43 42 42 41 40 38 39 38 37
39 37 39 41 40 32 29 37 48 50 53 53 54 54 53 53 53 54 54 53 52 52 51 50 50 49 48 47 46 46 45 45 45 44 43 43 43 43 43 42 42 41 40 40 38 38 39 37 36
44 42 44 37 37 37 35 37 50 52 54 55 54 55 54 55 54 54 54 52 52 50 50 49 48 48 47 47 46 45 45 44 43 42 43 43 42 42 41 41 41 40 40 39 38 37 37 35 34
MSLP
1012.40 1011.86 1011.88 1012.11 1013.31 1013.45 1012.59 1010.91 1009.84 1008.64 1007.72 1007.59 1007.41 1007.43 1007.94 1008.29 1008.69 1009.78 1009.64 1009.62 1010.03 1010.72 1011.03 1011.25 1011.46 1011.78 1012.06 1012.50 1012.92 1013.32 1013.63 1013.80 1013.96 1014.01 1014.00 1014.08 1014.10 1014.19 1014.30 1014.41 1014.52 1014.47 1014.47 1014.61 1014.54 1014.44 1014.38 1014.29 1014.27
1012.59 1012.18 1012.33 1012.95 1013.72 1013.61 1012.14 1010.34 1009.72 1008.96 1008.23 1007.39 1007.15 1007.09 1007.66 1008.46 1008.56 1009.33 1009.41 1009.72 1009.94 1010.47 1010.90 1011.23 1011.45 1011.72 1011.92 1012.33 1012.81 1013.20 1013.49 1013.71 1013.85 1013.92 1013.91 1013.98 1014.15 1014.20 1014.31 1014.49 1014.56 1014.58 1014.69 1014.69 1014.62 1014.53 1014.49 1014.41 1014.34
1012.57 1012.64 1013.71 1013.77 1013.71 1013.11 1011.86 1010.06 1009.17 1008.40 1007.80 1007.56 1007.39 1007.24 1007.85 1008.72 1008.87 1009.11 1009.13 1009.39 1009.96 1010.50 1010.75 1011.17 1011.37 1011.62 1011.81 1012.28 1012.69 1013.12 1013.31 1013.57 1013.72 1013.87 1013.91 1013.80 1013.84 1014.05 1014.29 1014.48 1014.59 1014.64 1014.67 1014.72 1014.63 1014.51 1014.46 1014.41 1014.39
1012.79 1012.98 1013.69 1013.91 1013.63 1011.88 1011.22 1009.77 1008.76 1008.32 1007.76 1007.46 1007.54 1008.10 1008.57 1008.68 1008.58 1008.77 1008.86 1009.18 1009.89 1010.43 1010.57 1011.01 1011.29 1011.54 1011.78 1012.18 1012.55 1013.01 1013.21 1013.41 1013.63 1013.76 1013.78 1013.80 1013.77 1013.84 1014.19 1014.37 1014.44 1014.55 1014.49 1014.53 1014.53 1014.44 1014.37 1014.38 1014.36
1013.12 1013.95 1014.43 1014.21 1013.43 1011.71 1010.26 1009.31 1008.16 1008.31 1008.18 1007.86 1007.75 1008.36 1008.88 1008.88 1008.68 1008.71 1008.82 1009.16 1009.73 1010.37 1010.50 1010.96 1011.23 1011.41 1011.72 1012.25 1012.55 1012.80 1013.09 1013.30 1013.43 1013.55 1013.59 1013.65 1013.63 1013.65 1014.02 1014.16 1014.32 1014.50 1014.50 1014.45 1014.48 1014.42 1014.34 1014.38 1014.42
1013.82 1014.13 1014.64 1014.38 1013.20 1011.30 1010.05 1008.78 1007.92 1008.02 1008.04 1008.13 1008.23 1008.42 1009.24 1009.26 1008.95 1008.94 1008.75 1009.13 1009.59 1010.21 1010.59 1010.93 1011.21 1011.35 1011.81 1012.14 1012.48 1012.72 1012.99 1013.19 1013.30 1013.44 1013.47 1013.40 1013.47 1013.70 1013.82 1013.99 1014.26 1014.35 1014.54 1014.50 1014.45 1014.42 1014.35 1014.23 1014.26
1013.91 1014.47 1014.36 1013.89 1012.96 1011.17 1009.93 1008.76 1007.99 1008.09 1008.29 1008.28 1008.25 1008.61 1009.39 1009.28 1008.97 1008.85 1008.88 1009.11 1009.66 1009.96 1010.57 1010.87 1011.17 1011.43 1011.80 1012.08 1012.32 1012.55 1012.85 1013.10 1013.19 1013.31 1013.48 1013.57 1013.63 1013.68 1013.84 1013.91 1014.08 1014.26 1014.25 1014.37 1014.34 1014.36 1014.29 1014.20 1014.16
1013.61 1014.15 1013.91 1013.30 1012.63 1010.81 1009.55 1008.67 1007.98 1008.00 1008.11 1007.90 1007.91 1008.54 1009.12 1008.96 1008.75 1008.76 1008.98 1009.14 1009.51 1010.05 1010.43 1010.94 1011.14 1011.47 1011.77 1011.96 1012.11 1012.46 1012.74 1012.90 1013.17 1013.28 1013.46 1013.56 1013.75 1013.69 1013.68 1013.81 1013.84 1014.08 1014.12 1014.20 1014.22 1014.17 1014.07 1014.00 1013.92
1013.38 1013.79 1013.13 1012.60 1011.96 1010.57 1009.41 1008.78 1008.03 1007.71 1007.91 1008.17 1008.18 1008.16 1008.07 1008.25 1008.48 1008.76 1009.08 1009.45 1009.64 1009.88 1010.24 1010.53 1010.93 1011.26 1011.41 1011.58 1012.03 1012.25 1012.57 1012.73 1012.97 1013.12 1013.25 1013.37 1013.51 1013.54 1013.65 1013.76 1013.79 1013.79 1013.90 1013.93 1013.94 1013.86 1013.78 1013.73 1013.67
1013.39 1012.95 1012.27 1011.65 1011.20 1010.41 1009.44 1009.03 1008.18 1008.05 1008.22 1008.41 1008.45 1008.17 1008.24 1008.63 1008.69 1008.77 1008.91 1009.16 1009.40 1009.52 1009.71 1010.05 1010.47 1010.82 1010.90 1011.09 1011.75 1012.11 1012.33 1012.61 1012.80 1012.83 1012.95 1013.10 1013.30 1013.47 1013.41 1013.42 1013.47 1013.56 1013.57 1013.61 1013.64 1013.57 1013.50 1013.42 1013.43
1012.93 1012.06 1011.84 1011.13 1010.73 1010.07 1009.65 1009.08 1008.46 1008.20 1008.46 1008.64 1008.59 1008.56 1008.45 1008.63 1008.62 1008.72 1008.71 1008.71 1008.60 1008.71 1009.01 1009.25 1009.72 1010.03 1010.40 1010.83 1011.41 1011.83 1011.99 1012.33 1012.48 1012.52 1012.68 1012.86 1013.15 1013.29 1013.40 1013.48 1013.49 1013.50 1013.42 1013.45 1013.45 1013.44 1013.35 1013.25 1013.15
1013.06 1012.29 1012.02 1011.22 1010.52 1009.93 1009.58 1008.92 1008.59 1008.51 1008.48 1008.35 1008.31 1008.35 1008.23 1008.00 1008.03 1007.85 1007.88 1007.90 1008.30 1008.45 1008.45 1008.53 1008.83 1009.48 1009.98 1010.30 1010.79 1011.08 1011.51 1011.90 1012.12 1012.08 1012.29 1012.69 1013.02 1013.01 1012.97 1013.22 1013.29 1013.35 1013.30 1013.37 1013.31 1013.24 1013.06 1012.95 1012.81
1012.86 1012.44 1011.75 1010.88 1010.26 1009.54 1009.22 1009.03 1008.75 1008.20 1008.11 1008.05 1008.11 1008.10 1008.01 1007.87 1007.77 1007.43 1007.47 1007.50 1007.55 1007.96 1008.11 1008.15 1008.37 1008.88 1009.45 1010.01 1010.29 1010.59 1011.15 1011.36 1011.48 1011.72 1011.85 1012.18 1012.55 1012.92 1012.89 1012.97 1013.06 1012.97 1012.91 1012.84 1012.83 1012.83 1012.80 1012.70 1012.41
1012.75 1012.24 1011.29 1010.43 1009.76 1009.32 1009.01 1008.62 1008.51 1007.93 1007.89 1008.26 1008.22 1008.14 1007.94 1007.60 1007.41 1007.37 1007.28 1007.47 1007.68 1007.73 1007.64 1007.75 1008.05 1008.49 1009.03 1009.58 1009.89 1010.16 1010.62 1010.90 1011.19 1011.51 1011.70 1011.98 1012.36 1012.73 1012.95 1012.99 1013.09 1013.04 1012.89 1012.73 1012.70 1012.86 1012.90 1012.84 1012.68
1012.89 1012.15 1011.02 1009.72 1009.41 1008.93 1009.23 1008.22 1007.83 1007.66 1007.89 1008.13 1008.10 1007.93 1007.56 1007.38 1007.16 1007.30 1007.37 1007.51 1007.79 1007.93 1007.79 1007.78 1007.72 1008.17 1008.72 1009.35 1009.60 1009.99 1010.29 1010.70 1011.11 1011.40 1011.72 1011.97 1012.25 1012.58 1012.88 1013.28 1013.39 1013.23 1013.09 1013.15 1013.21 1013.11 1013.17 1013.11 1013.02
1013.35 1012.56 1011.12 1009.26 1009.36 1008.52 1009.45 1007.20 1007.36 1007.30 1007.65 1007.85 1007.57 1007.68 1007.45 1007.46 1007.29 1007.25 1007.29 1007.46 1007.68 1008.10 1008.22 1008.13 1007.95 1008.27 1008.77 1009.24 1009.58 1009.85 1010.12 1010.80 1011.26 1011.81 1012.27 1012.54 1012.77 1012.97 1013.39 1013.75 1013.77 1013.72 1013.74 1013.85 1013.80 1013.80 1013.74 1013.72 1013.64
1013.94 1012.99 1011.79 1010.93 1009.86 1009.48 1008.48 1007.43 1007.28 1007.02 1007.28 1007.41 1007.45 1007.34 1007.19 1007.58 1007.50 1007.30 1007.27 1007.52 1007.93 1008.05 1008.36 1008.54 1008.15 1008.40 1008.86 1009.43 1009.96 1010.44 1010.82 1011.36 1012.01 1012.44 1013.00 1013.33 1013.56 1013.75 1013.97 1014.23 1014.37 1014.25 1014.35 1014.42 1014.41 1014.46 1014.46 1014.39 1014.09
1014.18 1013.49 1012.46 1010.90 1009.76 1009.72 1008.90 1007.76 1007.22 1006.72 1006.77 1006.80 1007.09 1007.05 1007.21 1007.36 1007.62 1007.51 1007.54 1007.83 1008.10 1008.27 1008.55 1008.48 1008.45 1008.66 1009.20 1009.97 1010.47 1011.11 1011.66 1012.31 1012.71 1013.25 1013.75 1013.95 1014.22 1014.36 1014.45 1014.77 1014.89 1014.85 1014.99 1015.07 1015.00 1014.98 1014.79 1014.66 1014.53
1014.38 1013.85 1012.84 1010.84 1010.44 1009.60 1008.42 1008.00 1006.66 1006.51 1006.32 1006.39 1006.61 1006.81 1006.88 1007.50 1007.72 1007.64 1007.97 1008.02 1008.35 1008.78 1008.84 1008.94 1009.02 1009.09 1009.52 1010.25 1010.95 1011.72 1012.49 1013.08 1013.61 1014.06 1014.31 1014.54 1014.77 1014.94 1015.16 1015.37 1015.40 1015.37 1015.55 1015.70 1015.58 1015.36 1015.19 1014.87 1014.63
1014.64 1014.09 1012.47 1011.48 1010.73 1010.24 1008.27 1007.27 1006.24 1005.98 1005.61 1005.46 1005.64 1006.14 1006.87 1007.69 1007.93 1008.04 1008.17 1008.42 1008.85 1009.26 1009.32 1009.51 1009.54 1009.66 1009.98 1010.37 1011.25 1012.01 1012.90 1013.76 1014.28 1014.79 1015.05 1015.22 1015.36 1015.41 1015.60 1015.83 1015.93 1015.94 1015.97 1015.97 1015.94 1015.92 1015.88 1015.55 1015.37
1014.10 1013.84 1012.73 1012.16 1011.57 1010.32 1008.72 1007.13 1005.68 1005.03 1004.67 1004.51 1004.73 1005.07 1006.20 1006.92 1007.74 1008.12 1008.60 1008.82 1009.40 1009.81 1009.97 1010.03 1010.09 1010.24 1010.50 1010.98 1011.77 1012.61 1013.46 1014.31 1015.00 1015.48 1015.72 1015.94 1015.88 1015.96 1016.08 1016.20 1016.27 1016.32 1016.27 1016.37 1016.33 1016.29 1016.28 1016.22 1015.78
1013.78 1013.10 1013.10 1012.79 1012.56 1010.64 1008.48 1006.45 1005.01 1004.48 1003.93 1003.91 1004.16 1004.99 1005.81 1006.80 1007.64 1008.22 1008.68 1009.00 1009.77 1010.29 1010.35 1010.49 1010.63 1010.85 1011.07 1011.59 1012.28 1013.16 1014.08 1014.98 1015.55 1015.79 1016.16 1016.38 1016.27 1016.37 1016.41 1016.45 1016.53 1016.64 1016.64 1016.67 1016.64 1016.49 1016.46 1016.40 1016.37
1012.07 1013.19 1012.81 1012.68 1012.31 1011.52 1009.07 1007.00 1004.01 1003.41 1003.21 1002.99 1003.09 1004.51 1005.49 1006.23 1007.11 1008.11 1008.64 1009.04 1010.00 1010.46 1010.71 1011.08 1011.25 1011.47 1011.79 1012.30 1012.84 1013.74 1014.58 1015.27 1015.70 1016.09 1016.50 1016.74 1016.82 1016.76 1016.78 1016.79 1016.87 1016.94 1016.89 1016.88 1016.80 1016.69 1016.61 1016.53 1016.51
1011.89 1012.74 1012.86 1012.67 1012.16 1010.22 1008.29 1006.60 1003.75 1002.62 1001.71 1001.43 1002.85 1004.07 1005.37 1006.37 1007.54 1008.45 1008.88 1009.31 1010.48 1010.86 1011.16 1011.42 1011.81 1012.38 1012.60 1013.07 1013.59 1014.35 1015.06 1015.74 1016.23 1016.67 1016.97 1017.14 1017.21 1017.23 1017.17 1017.06 1017.13 1017.08 1017.04 1016.95 1016.91 1016.81 1016.68 1016.60 1016.48
1011.40 1011.42 1010.99 1011.44 1011.05 1007.54 1005.75 1005.25 1002.46 1001.14 1000.29 1000.44 1002.07 1003.92 1005.11 1006.38 1007.53 1008.31 1009.01 1009.83 1010.84 1011.36 1011.62 1011.93 1012.40 1013.12 1013.37 1013.81 1014.36 1014.95 1015.51 1015.99 1016.57 1016.99 1017.24 1017.43 1017.54 1017.61 1017.56 1017.44 1017.37 1017.33 1017.15 1016.97 1016.90 1016.84 1016.72 1016.52 1016.50
1009.00 1009.41 1009.28 1008.60 1006.65 1005.66 1003.71 1003.34 1001.60 1000.29 999.83 1000.19 1001.65 1003.37 1005.08 1006.50 1007.42 1008.25 1009.14 1010.06 1010.95 1011.60 1011.94 1012.39 1012.93 1013.53 1014.00 1014.50 1015.05 1015.45 1015.79 1016.30 1016.76 1017.09 1017.44 1017.65 1017.69 1017.64 1017.56 1017.55 1017.51 1017.43 1017.23 1017.08 1016.95 1016.85 1016.68 1016.46 1016.31
1008.11 1007.82 1007.80 1007.10 1004.62 1004.13 1002.98 1002.03 1000.90 1000.51 1000.78 1001.41 1002.64 1003.98 1005.36 1006.46 1007.37 1008.26 1009.28 1010.25 1011.10 1011.79 1012.34 1012.71 1013.32 1013.98 1014.58 1015.09 1015.47 1015.89 1016.23 1016.61 1017.20 1017.39 1017.61 1017.69 1017.69 1017.63 1017.61 1017.64 1017.68 1017.50 1017.33 1017.18 1017.02 1016.88 1016.69 1016.42 1016.14
1006.71 1006.68 1007.43 1007.19 1003.54 1002.47 1003.01 1001.42 1000.83 1001.18 1001.36 1002.08 1003.06 1004.09 1005.34 1006.40 1007.38 1008.32 1009.32 1010.38 1011.35 1011.94 1012.56 1012.99 1013.70 1014.29 1014.96 1015.45 1015.76 1016.23 1016.64 1016.97 1017.33 1017.60 1017.82 1017.83 1017.83 1017.76 1017.75 1017.73 1017.67 1017.56 1017.44 1017.26 1017.03 1016.78 1016.48 1016.24 1016.00
1005.47 1004.92 1004.48 1003.17 1001.19 1000.65 1001.52 1000.80 999.76 1000.33 1000.83 1001.79 1002.74 1003.72 1004.78 1005.97 1007.11 1008.23 1009.37 1010.49 1011.42 1012.09 1012.69 1013.34 1014.01 1014.61 1015.34 1015.78 1016.17 1016.55 1016.96 1017.23 1017.52 1017.74 1017.88 1017.92 1017.87 1017.89 1017.90 1017.85 1017.72 1017.58 1017.38 1017.10 1016.85 1016.58 1016.19 1016.03 1015.89
1003.83 1002.62 1001.90 1001.13 1000.39 1000.13 1000.36 1000.94 999.81 1000.04 1000.55 1001.38 1002.58 1003.66 1004.76 1005.85 1007.06 1008.24 1009.34 1010.50 1011.52 1012.28 1012.94 1013.59 1014.23 1014.89 1015.58 1016.01 1016.42 1016.87 1017.15 1017.44 1017.70 1017.86 1017.97 1017.94 1017.98 1018.01 1017.98 1017.83 1017.69 1017.48 1017.20 1016.90 1016.62 1016.34 1015.93 1015.81 1015.61
Wind_Speed
9 9 4 5 5 4 4 7 2 8 4 2 2 2 4 3 3 2 3 11 16 14 12 13 15 16 17 16 15 12 10 8 7 7 6 8 7 7 5 7 5 6 5 5 6 8 9 9 7
5 6 5 2 4 2 6 4 4 1 4 5 5 3 3 2 4 6 4 11 15 14 12 11 13 16 16 16 16 13 10 8 6 7 6 7 8 6 7 6 5 5 5 4 4 4 5 7 8
6 4 3 2 2 5 4 1 1 1 3 4 3 2 3 2 3 4 5 11 16 13 13 11 15 14 14 17 15 13 11 9 7 7 5 5 6 5 6 5 5 4 3 3 3 2 2 3 3
3 6 5 2 8 12 6 9 5 3 6 4 1 4 4 4 2 8 8 10 13 11 12 15 16 14 14 16 15 12 10 9 7 6 3 2 5 6 7 5 4 3 2 0 1 1 1 1 1
3 2 1 3 7 9 7 9 5 2 4 4 2 0 3 3 6 9 8 8 12 8 11 12 15 14 15 15 14 12 11 9 9 8 6 4 7 8 9 8 6 3 2 2 2 3 3 4 5
1 2 1 5 8 10 7 8 4 2 4 8 1 3 2 1 4 5 6 8 13 12 10 10 12 14 14 14 14 13 10 10 9 8 6 4 2 6 6 4 7 4 3 3 4 5 6 7 8
5 2 5 5 7 12 3 5 5 3 1 3 4 3 2 1 4 6 6 8 12 12 10 8 7 9 12 13 12 11 11 9 8 8 5 3 5 6 5 6 7 6 6 6 6 7 7 8 9
3 4 5 6 8 15 4 3 1 5 3 3 2 3 4 5 6 7 7 8 8 10 10 10 7 6 7 7 12 11 11 9 8 7 5 4 3 5 7 8 7 8 7 6 7 8 9 9 10
2 2 8 9 9 10 6 2 2 2 3 2 4 3 6 10 9 6 5 4 5 6 9 9 10 9 9 8 8 11 11 11 10 9 8 6 5 6 6 5 7 6 8 8 8 9 10 10 10
5 5 8 5 8 7 10 6 5 3 2 3 5 7 3 4 5 8 7 8 7 8 9 11 11 11 10 8 8 6 7 5 5 6 6 5 5 4 7 8 11 10 9 8 10 11 12 9 4
4 11 4 5 13 12 9 4 3 1 2 5 6 4 4 7 7 9 8 8 12 12 6 10 12 11 10 7 6 5 4 4 5 7 6 5 4 3 3 2 3 3 5 3 5 5 4 5 4
14 12 14 12 14 14 6 4 4 4 7 4 6 6 5 8 6 5 6 8 7 8 11 10 9 9 10 7 7 8 5 5 4 5 7 4 3 4 2 1 3 3 2 4 5 3 5 5 6
12 13 15 14 16 19 13 10 9 5 7 7 9 9 10 8 9 7 4 2 4 9 9 11 9 8 7 8 7 5 6 6 5 5 6 5 4 2 1 2 1 2 2 3 3 3 3 4 5
7 10 16 18 17 17 19 10 5 6 4 8 10 10 10 10 9 4 3 2 6 4 9 10 9 8 7 6 7 5 5 5 4 4 5 6 4 3 3 3 3 3 2 2 3 4 5 6 6
8 17 16 20 17 18 12 16 11 10 7 9 14 10 12 7 7 6 5 4 4 3 4 6 8 8 8 7 7 5 4 5 5 4 5 6 4 4 4 4 4 4 7 8 6 7 6 5 6
3 6 10 10 14 14 13 23 10 9 9 14 15 10 10 8 7 7 7 4 2 2 3 3 5 7 6 6 5 4 4 6 7 8 8 10 8 8 6 5 6 5 6 5 4 5 5 5 5
2 9 12 15 7 6 13 19 10 9 9 12 9 10 11 8 5 6 7 6 3 0 3 3 5 5 6 8 9 10 11 9 8 9 8 10 11 9 7 6 6 6 5 6 5 5 4 4 5
10 7 12 14 7 11 16 17 10 10 14 17 11 10 7 9 8 7 8 6 5 4 5 5 4 5 9 9 10 9 10 9 8 8 8 9 8 9 8 7 7 6 5 5 4 5 3 2 4
11 11 15 17 14 11 20 18 21 16 10 10 10 9 7 8 7 8 6 7 6 4 6 5 7 6 9 7 8 8 6 7 8 8 10 9 8 9 7 5 5 5 5 5 6 3 5 3 6
13 17 24 20 20 17 20 23 22 11 14 17 12 10 9 8 8 8 8 7 6 5 6 6 7 8 8 8 6 5 6 6 7 6 8 7 7 7 6 5 5 6 4 6 6 5 3 3 5
16 18 19 23 17 21 17 21 24 11 18 9 10 9 15 17 13 8 8 9 8 8 7 8 8 11 11 14 11 9 8 5 5 5 4 5 7 7 6 6 5 5 4 4 3 4 6 3 3
18 22 20 21 16 13 13 11 16 17 13 11 11 9 15 14 10 9 11 10 9 6 7 8 8 11 9 11 11 10 6 6 2 3 4 4 6 7 6 6 6 5 4 5 4 4 3 3 4
19 10 16 20 19 15 23 9 8 8 15 22 21 10 15 17 17 14 13 13 8 7 8 7 9 10 9 9 10 8 7 4 3 4 6 6 5 6 6 6 6 5 4 4 5 5 5 2 2
15 14 18 15 12 14 22 17 6 8 15 7 7 16 17 15 14 13 12 13 9 7 8 9 12 10 10 10 9 9 9 7 6 5 5 4 3 4 6 5 5 5 5 4 4 4 5 4 3
24 13 6 6 10 15 20 12 9 7 9 11 19 18 18 17 17 16 15 13 9 9 9 10 12 11 11 12 10 9 9 9 8 6 4 4 3 2 4 4 5 3 4 5 4 4 4 4 3
9 9 6 9 15 7 17 9 8 10 5 16 21 21 19 17 16 16 14 12 11 10 9 11 12 12 10 10 9 8 8 5 5 5 4 3 2 2 3 5 5 5 6 5 5 3 4 5 5
9 11 8 3 6 6 5 3 5 4 10 18 19 19 18 17 16 16 14 12 9 9 10 12 12 10 9 8 8 7 7 7 6 6 4 3 3 3 4 4 5 6 6 6 6 4 5 5 4
10 7 6 6 7 7 5 4 7 6 10 14 18 18 16 15 15 15 14 12 7 10 10 10 10 11 8 8 7 7 7 7 6 6 5 5 3 4 5 5 6 6 6 6 6 4 5 5 4
6 5 11 7 5 7 6 5 6 13 14 18 17 17 18 17 16 15 14 11 10 10 11 10 10 10 8 7 7 7 6 6 6 5 4 4 4 5 5 5 5 6 6 6 5 6 6 5 5
16 9 7 2 1 3 6 3 3 9 10 14 15 16 16 16 15 15 14 13 13 11 11 10 9 9 8 7 7 7 6 6 6 5 4 4 4 4 5 5 6 6 6 6 6 6 6 5 5
Wind_Direction
315 314 319 20 37 62 260 263 347 304 47 133 257 138 206 201 257 188 232 121 123 141 151 156 163 150 150 145 139 139 136 134 129 119 127 123 119 98 93 79 66 59 67 48 42 33 42 41 60
311 326 22 39 92 353 273 240 43 79 294 331 339 30 68 102 86 118 92 135 137 144 152 156 155 158 156 151 140 140 141 140 147 136 142 112 108 98 94 87 75 71 55 55 40 47 55 53 61
322 173 73 129 189 203 240 283 280 320 350 347 22 349 53 357 115 120 179 124 139 146 152 157 159 167 155 144 138 145 143 142 147 150 162 150 135 112 117 101 83 84 66 42 37 45 46 51 53
340 356 4 133 259 263 227 278 141 7 354 27 38 33 68 255 132 154 162 134 139 155 157 160 164 161 150 143 144 149 146 151 153 165 174 113 175 113 141 131 125 124 127 90 342 346 334 316 304
19 68 227 236 250 270 263 264 113 73 331 301 120 257 84 18 113 139 148 143 120 128 144 156 162 160 155 152 150 152 160 157 161 170 196 206 162 147 157 168 168 171 188 223 265 288 292 299 294
311 120 142 222 258 268 318 256 98 72 329 310 150 91 76 317 90 165 151 141 138 136 143 153 159 152 154 156 155 158 160 165 170 176 197 155 183 184 143 158 175 200 236 281 283 289 284 287 273
159 93 220 232 257 284 265 285 116 134 267 340 285 73 172 68 178 167 160 126 139 140 143 145 150 153 154 161 163 161 165 168 175 180 206 70 94 134 146 156 186 225 248 272 280 284 291 296 295
149 147 237 221 246 274 249 223 173 136 236 300 14 132 210 206 184 132 127 126 136 146 149 157 154 157 161 167 167 171 170 169 179 180 202 169 201 217 221 197 206 237 253 265 280 282 284 284 284
4 233 225 223 229 258 280 242 254 164 95 1 274 185 204 172 155 131 142 139 150 157 164 165 167 176 177 174 181 178 180 181 186 190 201 214 213 230 238 230 219 223 227 253 264 271 273 272 273
194 206 230 210 230 244 275 223 204 123 19 302 326 9 98 172 164 163 175 187 181 187 177 175 175 182 179 179 173 177 184 188 194 196 207 210 220 228 233 210 202 210 228 246 261 266 265 269 257
247 237 267 237 251 265 275 275 302 171 268 230 257 278 183 198 186 198 205 201 198 194 180 171 176 184 178 182 164 179 189 191 206 204 206 212 213 218 192 189 218 224 243 243 259 275 263 255 249
255 259 251 267 273 276 261 264 222 207 218 246 280 271 269 296 268 251 285 227 199 185 190 184 175 168 174 164 170 182 183 191 198 205 202 176 195 189 185 203 221 216 232 244 242 246 257 261 259
267 263 266 257 243 258 266 249 243 233 267 294 296 297 289 283 249 242 202 304 155 186 196 186 173 172 172 164 178 164 187 185 183 174 163 149 141 155 146 154 192 220 229 228 271 285 299 311 309
293 292 270 260 261 258 261 249 211 232 248 273 265 262 268 255 253 206 152 40 22 331 186 184 174 174 168 162 174 171 160 165 139 138 139 131 118 118 93 49 22 350 339 347 19 19 10 12 8
276 269 266 249 250 248 280 259 220 220 207 241 260 248 261 214 149 143 117 96 67 4 29 188 176 170 162 178 162 153 154 145 135 133 132 106 96 77 59 44 40 17 41 37 32 25 22 16 359
306 282 249 253 240 240 227 257 242 218 211 240 251 248 244 204 161 141 120 94 97 98 64 93 111 108 122 144 162 135 109 82 69 66 63 63 53 64 70 60 46 36 45 38 39 25 11 5 1
256 272 271 275 257 260 222 254 240 221 212 248 245 260 234 186 133 132 122 101 75 130 167 117 82 103 103 88 82 83 80 78 76 73 67 58 55 52 64 56 41 37 43 34 26 21 21 357 350
221 248 247 258 243 246 268 266 251 224 220 241 253 239 208 173 170 142 116 120 103 87 122 108 92 104 102 98 92 81 81 76 75 72 69 65 59 55 59 48 40 36 43 28 18 18 350 349 335
283 278 274 258 259 222 245 255 250 237 236 234 237 238 202 164 168 134 128 119 97 90 115 125 121 113 115 109 101 90 85 85 75 71 65 59 58 55 55 53 44 35 50 32 18 348 352 341 350
249 257 262 284 280 270 242 239 248 224 223 229 218 227 146 146 153 143 131 112 90 88 83 81 83 85 93 100 99 101 102 83 86 79 68 64 60 56 64 58 49 45 48 31 26 28 344 317 19
241 245 250 259 283 298 256 246 246 242 235 213 219 211 164 163 158 145 128 114 99 90 90 92 93 98 101 105 104 96 89 64 79 66 72 65 66 58 59 54 54 48 51 36 14 21 28 337 325
246 234 249 262 262 249 232 254 241 223 234 216 215 195 167 156 139 133 126 109 105 104 94 86 91 101 96 108 108 108 115 120 130 116 105 81 67 57 50 47 50 50 38 28 357 20 21 12 341
238 230 246 243 252 261 265 240 259 192 229 228 217 153 163 155 146 140 128 117 111 101 94 90 88 85 90 94 105 110 105 103 97 93 99 92 61 55 44 43 43 40 32 14 19 14 3 348 313
247 249 263 244 239 249 246 203 249 202 208 222 147 157 151 139 134 127 119 111 107 101 94 89 90 82 83 92 89 99 105 102 90 80 80 73 68 43 34 34 36 30 24 9 358 352 347 327 312
245 187 193 209 230 250 192 200 235 254 215 170 151 151 142 139 137 134 128 122 123 117 111 103 101 94 92 92 92 97 98 95 96 91 85 72 45 30 20 32 23 7 356 357 356 347 338 321 331
179 173 168 229 171 195 176 191 222 226 146 127 142 142 137 139 141 137 135 132 134 132 115 112 109 104 96 96 93 91 92 94 89 92 90 86 81 77 29 27 16 0 355 354 356 341 334 339 325
175 204 232 271 252 133 182 189 3 59 98 128 136 140 146 146 144 141 136 139 135 130 127 123 116 109 103 102 100 94 94 94 100 90 83 75 47 40 33 18 3 354 356 354 353 344 326 318 308
223 131 136 189 249 102 209 161 179 169 141 141 147 151 150 145 142 139 140 142 133 131 128 115 115 118 117 111 104 104 105 100 96 86 75 60 43 28 15 2 359 352 347 344 342 324 309 312 314
209 198 228 204 213 139 129 246 197 172 160 163 166 157 151 151 147 144 143 140 136 130 129 125 121 119 112 108 107 102 98 94 89 86 70 54 38 17 5 352 344 338 331 323 320 310 299 319 332
205 236 225 198 14 89 123 295 60 159 163 157 158 154 149 147 144 142 143 140 141 135 133 131 124 118 123 120 109 105 98 92 86 74 56 44 26 2 343 337 332 322 315 307 305 299 312 319 308